EW1558 Weather Reports


Display with metric or nautical units.
time (UTC)temp
F
wind
direction
speed
MPH
gust
MPH
rain 1hr
in
rain 24hr
in
rain mn
in
humidity
%
barometer
mb
20260905230033 71 82 9.0 16.0 0.00 0.00 0.00 96 1013.9
20260905224533 71 69 12.0 18.0 0.00 0.00 0.00 95 1013.8
20260905223038 71 77 13.0 16.0 0.00 0.00 0.00 96 1013.9
20260905221542 71 51 11.0 16.0 0.00 0.00 0.00 96 1013.8
20260905220030 71 71 13.0 19.0 0.00 0.00 0.00 96 1013.5
20260905214527 71 68 12.0 16.0 0.00 0.00 0.00 96 1013.4
20260905213027 72 74 7.0 12.0 0.00 0.00 0.00 97 1013.1
20260905211540 72 42 5.0 9.0 0.00 0.00 0.00 97 1013.0
20260905210025 72 49 5.0 8.0 0.00 0.00 0.00 97 1013.0
20260905204524 72 59 2.0 9.0 0.00 0.00 0.00 98 1013.0
20260905203030 72 76 7.0 10.0 0.00 0.00 0.00 97 1013.0
20260905201525 73 73 7.0 9.0 0.00 0.00 0.00 96 1013.1
20260905200033 72 84 6.0 9.0 0.00 0.00 0.00 97 1013.0
20260905194523 73 76 3.0 6.0 0.00 0.00 0.00 97 1013.2
20260905193023 72 76 4.0 9.0 0.00 0.00 0.00 97 1013.2
20260905191522 72 58 3.0 8.0 0.00 0.00 0.00 98 1013.2
20260905190022 71 55 5.0 8.0 0.00 0.00 0.00 98 1013.3
20260905184530 72 59 6.0 10.0 0.00 0.00 0.00 97 1013.4
20260905183020 72 74 8.0 11.0 0.00 0.00 0.00 97 1013.4
20260905181520 71 24 5.0 10.0 0.00 0.00 0.00 98 1013.5
20260905180020 71 64 7.0 13.0 0.00 0.00 0.00 98 1013.4
20260905174518 71 68 7.0 10.0 0.00 0.02 0.00 97 1013.3
20260905173018 71 64 6.0 9.0 0.00 0.02 0.00 97 1013.4
20260905171535 72 70 4.0 8.0 0.00 0.02 0.00 96 1013.4
20260905170020 72 59 4.0 7.0 0.00 0.02 0.00 97 1013.5
20260905164517 72 64 4.0 8.0 0.00 0.02 0.00 98 1013.6
20260905163018 71 58 4.0 9.0 0.00 0.02 0.00 98 1013.5
20260905161520 71 63 4.0 7.0 0.00 0.02 0.00 98 1013.5
20260905160026 71 67 5.0 10.0 0.00 0.02 0.00 98 1013.3
20260905154523 71 61 4.0 9.0 0.00 0.02 0.00 98 1013.3
20260905153012 71 58 5.0 10.0 0.00 0.02 0.00 98 1013.2
20260905151514 71 65 5.0 13.0 0.00 0.02 0.00 98 1013.0
20260905150007 71 73 5.0 17.0 0.00 0.02 0.00 98 1013.0
20260905144507 71 58 5.0 9.0 0.00 0.02 0.00 99 1012.9
20260905143006 71 69 7.0 13.0 0.00 0.02 0.00 99 1012.7
20260905141507 71 65 4.0 8.0 0.00 0.02 0.00 99 1012.6
20260905140007 71 54 4.0 7.0 0.00 0.02 0.00 99 1012.4
20260905134508 71 66 4.0 9.0 0.00 0.02 0.00 99 1012.5
20260905133005 71 75 5.0 10.0 0.00 0.02 0.00 99 1012.7
20260905131504 71 63 4.0 12.0 0.00 0.02 0.00 99 1012.6
20260905130100 71 65 3.0 5.0 0.00 0.02 0.00 99 1012.3
20260905124558 72 73 4.0 9.0 0.00 0.02 0.00 99 1012.1
20260905123056 72 47 3.0 8.0 0.00 0.02 0.00 99 1011.7
20260905121554 72 60 3.0 8.0 0.00 0.02 0.00 99 1011.4
20260905120054 72 56 4.0 10.0 0.00 0.02 0.00 99 1011.3
20260905114606 72 28 2.0 7.0 0.00 0.02 0.00 99 1011.0
20260905113048 72 63 3.0 8.0 0.00 0.02 0.00 99 1010.9
20260905111552 71 43 3.0 8.0 0.00 0.02 0.00 99 1010.7
20260905110046 70 31 4.0 13.0 0.00 0.02 0.00 99 1010.5
20260905104550 70 58 5.0 10.0 0.00 0.02 0.00 99 1010.7
20260905103047 70 82 6.0 11.0 0.00 0.02 0.00 99 1010.7
20260905101543 70 74 5.0 11.0 0.00 0.02 0.00 99 1010.8
20260905100042 70 78 9.0 14.0 0.00 0.02 0.00 99 1010.7
20260905094557 71 70 2.0 5.0 0.00 0.02 0.00 99 1010.8
20260905093043 71 64 2.0 5.0 0.00 0.02 0.00 98 1010.6
20260905091537 71 76 0.0 7.0 0.00 0.02 0.00 98 1010.4
20260905090035 72 43 2.0 6.0 0.00 0.02 0.00 98 1010.4
20260905084540 72 64 2.0 7.0 0.00 0.02 0.00 98 1010.3
20260905083033 72 93 0.0 5.0 0.00 0.02 0.00 98 1010.1
20260905081532 72 71 0.0 0.0 0.00 0.02 0.00 98 1010.0
20260905080045 72 71 0.0 1.0 0.00 0.02 0.00 97 1009.9
20260905074529 74 57 0.0 0.0 0.00 0.02 0.00 98 1010.1
20260905073039 73 58 0.0 2.0 0.00 0.02 0.00 97 1010.2
20260905071527 74 33 0.0 2.0 0.00 0.02 0.00 97 1010.1
20260905070026 74 30 0.0 0.0 0.00 0.02 0.00 98 1010.0
20260905064525 74 82 0.0 2.0 0.00 0.02 0.00 98 1010.3
20260905063024 74 83 0.0 1.0 0.00 0.02 0.00 97 1010.4
20260905061529 74 83 0.0 0.0 0.00 0.02 0.00 97 1010.4
20260905060021 73 84 0.0 0.0 0.00 0.02 0.00 96 1010.5
20260905054520 74 84 0.0 2.0 0.00 0.02 0.00 97 1010.6
20260905053022 74 84 0.0 0.0 0.00 0.02 0.00 97 1010.5
20260905051523 74 85 0.0 2.0 0.00 0.02 0.00 97 1010.6
20260905050016 74 86 0.0 0.0 0.00 0.02 0.00 97 1010.5
20260905044517 73 86 0.0 2.0 0.00 0.02 0.02 97 1010.4
20260905043015 73 86 0.0 3.0 0.00 0.02 0.02 96 1010.6
20260905041515 74 86 0.0 0.0 0.00 0.02 0.02 96 1010.7
20260905040019 74 86 0.0 2.0 0.00 0.02 0.02 96 1010.8
20260905034513 74 360 0.0 3.0 0.00 0.02 0.02 96 1011.0
20260905033013 74 343 1.0 3.0 0.00 0.02 0.02 96 1011.2
20260905031514 73 69 0.0 4.0 0.00 0.02 0.02 97 1010.9
20260905030012 73 74 2.0 4.0 0.00 0.02 0.02 97 1011.1
20260905024512 73 65 0.0 4.0 0.00 0.02 0.02 97 1011.0
20260905023012 73 62 1.0 6.0 0.00 0.02 0.02 96 1011.3
20260905021511 73 76 1.0 5.0 0.00 0.02 0.02 96 1011.0
20260905020011 73 72 1.0 8.0 0.00 0.02 0.02 95 1011.2
20260905014511 74 63 1.0 4.0 0.00 0.02 0.02 96 1011.2
20260905013009 74 53 4.0 7.0 0.00 0.02 0.02 95 1011.1
20260905011509 74 37 1.0 5.0 0.00 0.02 0.02 95 1010.7
20260905010015 75 73 3.0 7.0 0.00 0.02 0.02 93 1010.5
20260905004509 75 67 2.0 5.0 0.00 0.02 0.02 90 1010.0
20260905003016 75 44 1.0 7.0 0.00 0.02 0.02 89 1010.2
20260905001507 76 65 2.0 9.0 0.00 0.02 0.02 90 1010.1
20260905000018 77 17 5.0 10.0 0.00 0.02 0.02 86 1009.9
20260904234506 85 84 0.0 3.0 0.00 0.02 0.02 70 1009.4
20260904233006 88 117 0.0 1.0 0.00 0.02 0.02 72 1009.2
20260904231505 89 117 0.0 1.0 0.00 0.02 0.02 70 1009.1